Location: Baia Mare
(47.6567°N, 23.5850°E)
Time: 12:55:13
(UTC+02:00)

ISS - Pass Details

Date: 25 December 2018
Orbit: 401 x 408 km, 51.6° (Epoch: 16 December)

Event Time Altitude Azimuth Distance (km) Brightness Sun altitude
Rises 07:02:38 0° 225° (SW) 2,318 -0.2 -11.2°
Reaches altitude 10° 07:04:46 10° 218° (SW) 1,460 -1.2 -10.9°
Maximum altitude 07:07:52 41° 147° (SSE) 601 -2.5 -10.4°
Drops below altitude 10° 07:10:59 10° 75° (ENE) 1,466 -0.2 -9.9°
Sets 07:13:08 0° 68° (ENE) 2,327 0.7 -9.6°
